Location: Boitzum
(52.1496°N, 9.6943°E)
Time: 23:43:08
(UTC+00:00)

SL-8 Rocket - Pass Details

Date: 13 January 2026
Orbit: 955 x 990 km, 82.9° (Epoch: 7 February)

Event Time Altitude Azimuth Distance (km) Brightness Sun altitude
Rises 06:24:58 0° 188° (S) 3,690 7.2 -8.8°
Reaches altitude 10° 06:27:29 10° 189° (S) 2,744 6.6 -8.4°
Maximum altitude 06:33:48 88° 277° (W) 995 4.1 -7.6°
Drops below altitude 10° 06:40:08 10° 10° (N) 2,746 6.2 -6.7°
Sets 06:42:39 0° 11° (N) 3,693 6.9 -6.3°
